Regional Weather Roundup
Issued by NWS Charleston, SC

Current Version | Previous Version | Graphics & Text | Print | Product List | Glossary On
Versions: 1 2 3 4 5 6 7 8 9 10 11 12 13 14 15 16 17 18 19 20 21 22 23 24 25 26 27 28 29 30 31 32 33 34 35 36 37 38 39 40 41 42 43 44 45 46 47 48 49 50
000
ASUS42 KCHS 181025
RWRCHS

REGIONAL WEATHER ROUNDUP
NATIONAL WEATHER SERVICE CHARLESTON SC
500 AM EST THU DEC 18 2014

NOTE: "FAIR" INDICATES FEW OR NO CLOUDS BELOW 12,000 FEET WITH NO
SIGNIFICANT WEATHER AND/OR OBSTRUCTIONS TO VISIBILITY.

NOT ALL STATIONS ARE QUALITY CONTROLLED BY THE NATIONAL
WEATHER SERVICE. USE DATA WITH CAUTION...ESPECIALLY
DEWPOINT OBSERVATIONS.

SCZ027-030-031-034>040-042>050-181100-
...SOUTHEAST SOUTH CAROLINA...

CITY           SKY/WX    TMP DP  RH WIND       PRES   REMARKS
N CHARLESTON   MOCLDY    40  39  97 CALM      30.11R
WATERFRONT PRK   N/A     46 N/A N/A CALM        N/A
MOUNT PLEASANT FAIR      39  39 100 CALM      30.11R
PINOPOLIS        N/A     46  43  87 VRB2      30.01R
MONCKS CORNER  FAIR      37  36  93 CALM      30.10R FOG
SUMMERVILLE    NOT AVBL
BEAUFORT MCAS  PTCLDY    40  38  93 CALM      30.11S
BEAUFORT ARPT  FAIR      41  41 100 CALM      30.11R
HILTON HEAD IS NOT AVBL
WALTERBORO     MOSUNNY   36 N/A N/A CALM      30.11S
ALLENDALE      FAIR      36  36 100 CALM      30.11R

...SOUTHERN MIDLANDS AND PEE DEE...

CITY           SKY/WX    TMP DP  RH WIND       PRES   REMARKS
GEORGETOWN     NOT AVBL
KINGSTREE      NOT AVBL
ORANGEBURG     PTCLDY    35  32  88 CALM      30.10R
BARNWELL         N/A     34  32  93 CALM      30.13R
AIKEN          FAIR      36  36 100 W3        30.13R
MANNING        NOT AVBL
COLUMBIA       PTCLDY    34  31  88 W3        30.10R
SUMTER         PTCLDY    35  33  91 NE2       30.08R
FLORENCE       PTCLDY    37  35  92 CALM      30.10R
MYRTLE BEACH   PTCLDY    37  36  93 CALM      30.11R
N MYRTLE BEACH CLEAR     36  35  96 CALM      30.10R FOG

$$

GAZ063-065-086>088-099>101-113>116-118-119-134>141-150-181100-
...SOUTHEAST GEORGIA...

CITY           SKY/WX    TMP DP  RH WIND       PRES   REMARKS
SAVANNAH ARPT  CLEAR     40  35  83 W3        30.12R
HUNTER AAF     PTCLDY    38  38  99 W1        30.09S
FORT STEWART   PTCLDY    39  37  92 CALM      30.11F
STATESBORO     PTCLDY    37  37 100 W3        30.12R
SYLVANIA       MOSUNNY   35  35 100 CALM      30.13R
CLAXTON        FAIR      34  34 100 CALM      30.13S

...CSRA...CENTRAL AND FAR SOUTHEAST GEORGIA...

CITY           SKY/WX    TMP DP  RH WIND       PRES   REMARKS
THOMSON        CLOUDY    35  35 100 CALM      30.16R
AUGUSTA-BUSH   MOCLDY    34  33  96 CALM      30.12R
AUGUSTA-DANIEL MOCLDY    41  37  86 NW3       30.11R
SWAINSBORO     FAIR      37  37 100 NW3       30.13S
VIDALIA        MOCLDY    37  37 100 CALM      30.12F
EASTMAN        FAIR      35  35 100 CALM      30.16S
HAZLEHURST     FAIR      42  42 100 CALM      30.12S
ALMA           MOCLDY    39  37  92 CALM      30.13F FOG
WAYCROSS       CLOUDY    45  43  95 N3        30.13F
JESUP          FAIR      43  41  93 NW5       30.13F
BAXLEY         FAIR      41  39  93 CALM      30.12F
BRUNSWICK      CLOUDY    45  41  87 NW3       30.14R
SAINT SIMONS   CLOUDY    47  41  80 NW6       30.12S

$$

SCZ027-028-034-036>038-045-046-048>050-GAZ119-141-181100-
...LAKE AND SUPPLEMENTAL COASTAL OBSERVATIONS...

STATION/POSITION TIME  TEMP    WIND        PRES    WAVE   SWELL
                       AIR SEA DIR/SP/G            HT/PER HT/PER/DIR
                 (UTC) (F)     (DEG/KT/KT) (MB)    (FT/S) (FT/S/D)
UPR LAKE MARION  NOT AVBL
WINYAH BAY       1000   43     310/  4     1018.0S
LAKE MURRAY      0900   42     290/  2/  3 1018.3S
ACE BASIN NERRS  1000   41        CALM     1019.0S
FORT PULASKI     1000   48 57  270/  5/  6 1020.0R
SAPELO ISLAND    1000   45     320/  4     1020.0S

$$

ANZ835-935-AMZ111-154-330-350-352-354-370-450-454-472-181100-
...C-MAN AND BUOY OBSERVATIONS...

STATION/POSITION TIME  TEMP    WIND        PRES    WAVE   SWELL
                       AIR SEA DIR/SP/G            HT/PER HT/PER/DIR
                 (UTC) (F)     (DEG/KT/KT) (MB)    (FT/S) (FT/S/D)
BUOY 41004       1000   60 73  280/  8/ 12 1018.5F
BUOY 41008       1000   54 57  330/ 10/ 10 1019.6R   1/11
FOLLY BEACH CMAN 1000   47     270/  3/  3 1019.5R
CAPERS NEARSHORE 0900   52     270/  6/  6   N/A
FRIPP NEARSHORE  NOT AVBL


STATION/POSITION TIME  TEMP    WIND        PRES    WAVE   SWELL
                       AIR SEA DIR/SP/G            HT/PER HT/PER/DIR
                 (UTC) (F)     (DEG/KT/KT) (MB)    (FT/S) (FT/S/D)
5E ST. MARYS GA  1000      60                N/A     1/11
FRYING PAN BUOY  1000   58 66  310/ 10/ 12 1019.1S   2/10   2/130/10
BUOY 41025       1000   53                 1017.8R   3/ 4
CAPE LOOKOUT NC  1000   49     340/ 12/ 15 1018.7R
BUOY 41002       0922   69 72  260/ 12/ 14 1017.9S   4/ 7   3/260/ 7
BUOY 41010       1000   71 76  280/ 12/ 14 1019.0F   2/11   2/ 90/11
ST AUGUSTINE FL  1000   48     270/  6/  7 1020.2F


$$


USA.gov is the U.S. government's official web portal to all federal, state and local government web resources and services.